Погода в Баркисимето

Венесуэла     10°04′29″N   69°17′53″W
темп.,
°C
ветер,
м/с
пор.,
м/с
влажн.,
%
обл.,
%
осадки,
мм/ч
давл.,
гПа
погр.,
м
26 октября, вт
вт2623:00+20вюв119631 0.1 101541
02:00+19вюв019740 0.1 101434
05:00+19юв009713 0.2 101329
08:00+22юв13867 0.9 1015215
11:00+27юв476124 0.4 10151254
14:00+28юв47576 1.0 10111289
17:00+26юв366127 0.3 10101055
20:00+21юв1384100 0.3 101289
27 октября, ср
ср2723:00+21юв1388100 0.0 101388
02:00+20юв1495100 0.1 1012140
05:00+19юв2696100 0.1 1012164
08:00+21юв2795100 0.3 1014364
11:00+22юв3791100 0.4 1015612
14:00+21юв2691100 0.9 1012417
17:00+25юв367397 0.1 1010782
20:00+21юв2698100 0.1 1013334
28 октября, чт
чт2823:00+20юв2799100 0.0 1014313
02:00+20юв2699100 0.4 1013297
05:00+20юв2699100 1.6 1012342
08:00+20юв2799100 5.5 1015448
11:00+21юв2698100 3.1 1016466
14:00+21вюв269898 3.7 1014367
17:00+22вюв239075 0.3 1013345
20:00+20ссв0095100 0.3 101426
29 октября, пт
пт2923:00+20зсз1297100 0.6 101546
02:00+20зсз1196100 1.2 101341
05:00+20зсз1197100 0.2 101236
08:00+21сз0195100 0.4 101450
11:00+27вюв235914 0.0 1014902
14:00+28ююв335230 0.1 10111526
17:00+26юв346032 0.1 1010780
20:00+21ююв138598 0.1 101399
30 октября, сб
сб3023:00+21юв1387100 0.1 1013105
02:00+20юв129399 0.1 101277
05:00+20юв119193 0.0 101158
08:00+21в0187100 0.1 101380
11:00+22всв1187100 0.4 1014230
14:00+26в126569 0.7 1010734
17:00+24всв127686 1.0 1009188
20:00+21св009444 1.6 101114